Location: Koussan�
(15.2012°N, 12.5548°W)
Time: 18:37:32
(UTC+00:00)

CZ-4B R/B - Pass Details

Date: 20 October 2020
Orbit: 808 x 882 km, 99.1° (Epoch: 01 December)

Event Time Altitude Azimuth Distance (km) Brightness Sun altitude
Rises 18:34:02 0° 169° (SSE) 3,467 6.4 -2.6°
Reaches altitude 10° 18:36:25 10° 169° (S) 2,532 5.7 -3.2°
Maximum altitude 18:42:05 82° 257° (WSW) 891 3.5 -4.5°
Drops below altitude 10° 18:47:43 10° 345° (NNW) 2,524 5.8 -5.8°
Sets 18:50:06 0° 346° (NNW) 3,457 6.4 -6.4°
